Location: Neuvy Saint Sepulchre
(46.5953°N, 1.8122°E)
Time: 02:10:04
(UTC+02:00)

ISS - Pass Details

Date: 31 March 2019
Orbit: 408 x 410 km, 51.6° (Epoch: 23 April)

Event Time Altitude Azimuth Distance (km) Brightness Sun altitude
Rises 22:34:50 0° 295° (WNW) 2,339 1.5 -22.4°
Reaches altitude 10° 22:36:57 10° 300° (WNW) 1,475 0.1 -22.7°
Enters shadow 22:39:26 43° 328° (NNW) 589 -2.7 -23.1°
